| time (UTC) | temp F | wind direction | speed MPH | gust MPH | rain 1hr in | rain 24hr in | rain mn in | humidity % | barometer mb |
| 20260510115646 | 65 | 205 | 0.0 | 0.0 | 0.00 | 0.00 | 0.00 | 77 | 1010.9 |
| 20260510115144 | 65 | 222 | 0.0 | 0.0 | 0.00 | 0.00 | 0.00 | 77 | 1010.7 |
| 20260510114640 | 65 | 221 | 0.0 | 0.0 | 0.00 | 0.00 | 0.00 | 77 | 1011.1 |
| 20260510114136 | 65 | 222 | 0.0 | 0.0 | 0.00 | 0.00 | 0.00 | 76 | 1010.7 |
| 20260510113631 | 65 | 230 | 0.0 | 0.0 | 0.00 | 0.00 | 0.00 | 76 | 1010.8 |
| 20260510113129 | 66 | 243 | 0.0 | 0.0 | 0.00 | 0.00 | 0.00 | 75 | 1011.1 |
| 20260510112625 | 66 | 227 | 0.0 | 0.0 | 0.00 | 0.00 | 0.00 | 74 | 1011.1 |
| 20260510112122 | 66 | 239 | 0.0 | 0.0 | 0.00 | 0.00 | 0.00 | 74 | 1010.9 |
| 20260510111618 | 66 | 197 | 0.0 | 0.0 | 0.00 | 0.00 | 0.00 | 74 | 1010.8 |
| 20260510111114 | 66 | 226 | 0.0 | 0.0 | 0.00 | 0.00 | 0.00 | 74 | 1010.9 |
| 20260510110610 | 66 | 182 | 0.0 | 0.0 | 0.00 | 0.00 | 0.00 | 74 | 1010.6 |
| 20260510110107 | 66 | 194 | 0.0 | 0.0 | 0.00 | 0.00 | 0.00 | 74 | 1010.4 |
| 20260510105603 | 66 | 171 | 0.0 | 0.0 | 0.00 | 0.00 | 0.00 | 73 | 1010.7 |
| 20260510105057 | 66 | 215 | 0.0 | 0.0 | 0.00 | 0.00 | 0.00 | 73 | 1011.0 |
| 20260510104555 | 66 | 230 | 0.0 | 0.0 | 0.00 | 0.00 | 0.00 | 72 | 1010.9 |
| 20260510104051 | 67 | 246 | 0.0 | 0.0 | 0.00 | 0.00 | 0.00 | 71 | 1010.8 |
| 20260510103548 | 67 | 258 | 0.0 | 0.0 | 0.00 | 0.00 | 0.00 | 71 | 1010.9 |
| 20260510103044 | 68 | 223 | 0.0 | 0.0 | 0.00 | 0.00 | 0.00 | 70 | 1010.9 |
| 20260510102540 | 68 | 164 | 0.0 | 0.0 | 0.00 | 0.00 | 0.00 | 70 | 1010.4 |
| 20260510102036 | 68 | 223 | 0.0 | 0.0 | 0.00 | 0.00 | 0.00 | 69 | 1010.3 |
| 20260510101534 | 68 | 234 | 0.0 | 0.0 | 0.00 | 0.00 | 0.00 | 69 | 1010.3 |
| 20260510101032 | 68 | 217 | 0.0 | 0.0 | 0.00 | 0.00 | 0.00 | 69 | 1010.4 |
| 20260510100528 | 68 | 242 | 0.0 | 0.0 | 0.00 | 0.00 | 0.00 | 68 | 1010.3 |
| 20260510100025 | 68 | 221 | 0.0 | 0.0 | 0.00 | 0.00 | 0.00 | 68 | 1010.4 |
| 20260510095521 | 68 | 216 | 0.0 | 0.0 | 0.00 | 0.00 | 0.00 | 68 | 1010.4 |
| 20260510095020 | 69 | 218 | 0.0 | 0.0 | 0.00 | 0.00 | 0.00 | 67 | 1010.1 |
| 20260510094515 | 69 | 206 | 0.0 | 0.0 | 0.00 | 0.00 | 0.00 | 67 | 1010.0 |
| 20260510094011 | 69 | 193 | 0.0 | 0.0 | 0.00 | 0.00 | 0.00 | 66 | 1010.1 |
| 20260510093507 | 69 | 216 | 0.0 | 0.0 | 0.00 | 0.00 | 0.00 | 66 | 1010.0 |
| 20260510093004 | 69 | 186 | 0.0 | 0.0 | 0.00 | 0.00 | 0.00 | 65 | 1010.2 |
| 20260510092501 | 70 | 210 | 0.0 | 0.0 | 0.00 | 0.00 | 0.00 | 64 | 1010.0 |
| 20260510092000 | 70 | 218 | 0.0 | 0.0 | 0.00 | 0.00 | 0.00 | 64 | 1010.4 |
| 20260510091457 | 70 | 189 | 0.0 | 0.0 | 0.00 | 0.00 | 0.00 | 64 | 1010.2 |
| 20260510090953 | 70 | 224 | 0.0 | 0.0 | 0.00 | 0.00 | 0.00 | 63 | 1010.1 |
| 20260510090451 | 70 | 218 | 0.0 | 0.0 | 0.00 | 0.00 | 0.00 | 63 | 1010.2 |
| 20260510085946 | 70 | 208 | 0.0 | 0.0 | 0.00 | 0.00 | 0.00 | 62 | 1010.1 |
| 20260510085441 | 70 | 204 | 0.0 | 0.0 | 0.00 | 0.00 | 0.00 | 62 | 1010.1 |
| 20260510084937 | 71 | 215 | 0.0 | 0.0 | 0.00 | 0.00 | 0.00 | 61 | 1010.2 |
| 20260510084434 | 71 | 223 | 0.0 | 0.0 | 0.00 | 0.00 | 0.00 | 61 | 1010.4 |
| 20260510083931 | 71 | 214 | 0.0 | 0.0 | 0.00 | 0.00 | 0.00 | 60 | 1010.2 |
| 20260510083427 | 71 | 198 | 0.0 | 0.0 | 0.00 | 0.00 | 0.00 | 60 | 1010.2 |
| 20260510082922 | 71 | 240 | 0.0 | 0.0 | 0.00 | 0.00 | 0.00 | 59 | 1010.1 |
| 20260510082421 | 71 | 214 | 0.0 | 0.0 | 0.00 | 0.00 | 0.00 | 59 | 1010.1 |
| 20260510081919 | 71 | 235 | 0.0 | 0.0 | 0.00 | 0.00 | 0.00 | 58 | 1010.3 |
| 20260510081415 | 72 | 216 | 0.0 | 0.0 | 0.00 | 0.00 | 0.00 | 57 | 1010.1 |
| 20260510080912 | 72 | 203 | 0.0 | 1.0 | 0.00 | 0.00 | 0.00 | 57 | 1010.3 |
| 20260510080411 | 72 | 211 | 0.0 | 0.0 | 0.00 | 0.00 | 0.00 | 56 | 1010.1 |
| 20260510075908 | 72 | 199 | 0.0 | 0.0 | 0.00 | 0.00 | 0.00 | 56 | 1010.2 |
| 20260510075406 | 72 | 237 | 0.0 | 0.0 | 0.00 | 0.00 | 0.00 | 55 | 1010.3 |
| 20260510074903 | 72 | 205 | 0.0 | 0.0 | 0.00 | 0.00 | 0.00 | 54 | 1010.1 |
| 20260510074400 | 72 | 198 | 0.0 | 0.0 | 0.00 | 0.00 | 0.00 | 53 | 1010.7 |
| 20260510073856 | 72 | 208 | 0.0 | 0.0 | 0.00 | 0.00 | 0.00 | 53 | 1010.6 |
| 20260510073352 | 72 | 239 | 0.0 | 0.0 | 0.00 | 0.00 | 0.00 | 52 | 1010.4 |
| 20260510072848 | 72 | 206 | 0.0 | 0.0 | 0.00 | 0.00 | 0.00 | 50 | 1010.7 |
| 20260510072345 | 73 | 212 | 0.0 | 0.0 | 0.00 | 0.00 | 0.00 | 49 | 1010.7 |
| 20260510071841 | 73 | 221 | 0.0 | 0.0 | 0.00 | 0.00 | 0.00 | 48 | 1010.9 |
| 20260510071337 | 73 | 207 | 0.0 | 0.0 | 0.00 | 0.00 | 0.00 | 48 | 1010.9 |
| 20260510070836 | 73 | 210 | 0.0 | 0.0 | 0.00 | 0.00 | 0.00 | 47 | 1010.8 |
| 20260510070332 | 74 | 213 | 0.0 | 1.0 | 0.00 | 0.00 | 0.00 | 46 | 1010.6 |
| 20260510065827 | 74 | 232 | 0.0 | 0.0 | 0.00 | 0.00 | 0.00 | 45 | 1010.7 |
| 20260510065325 | 74 | 244 | 0.0 | 0.0 | 0.00 | 0.00 | 0.00 | 45 | 1010.8 |
| 20260510064821 | 74 | 173 | 0.0 | 2.0 | 0.00 | 0.00 | 0.00 | 44 | 1010.9 |
| 20260510064319 | 74 | 206 | 0.0 | 0.0 | 0.00 | 0.00 | 0.00 | 43 | 1011.0 |
| 20260510063815 | 74 | 233 | 0.0 | 0.0 | 0.00 | 0.00 | 0.00 | 43 | 1010.8 |
| 20260510063311 | 75 | 191 | 0.0 | 0.0 | 0.00 | 0.00 | 0.00 | 42 | 1010.9 |
| 20260510062808 | 75 | 200 | 7.0 | 14.0 | 0.00 | 0.00 | 0.00 | 41 | 1010.8 |
| 20260510062306 | 75 | 266 | 0.0 | 0.0 | 0.00 | 0.00 | 0.00 | 40 | 1010.8 |
| 20260510061759 | 75 | 230 | 0.0 | 0.0 | 0.00 | 0.00 | 0.00 | 39 | 1010.9 |
| 20260510061257 | 75 | 211 | 0.0 | 0.0 | 0.00 | 0.00 | 0.00 | 38 | 1010.9 |
| 20260510060752 | 75 | 216 | 0.0 | 0.0 | 0.00 | 0.00 | 0.00 | 37 | 1011.0 |
| 20260510060250 | 75 | 226 | 0.0 | 0.0 | 0.00 | 0.00 | 0.00 | 37 | 1011.0 |
| 20260510055746 | 75 | 170 | 0.0 | 0.0 | 0.00 | 0.00 | 0.00 | 36 | 1010.8 |
| 20260510055245 | 75 | 240 | 0.0 | 0.0 | 0.00 | 0.00 | 0.00 | 35 | 1010.8 |
| 20260510054744 | 75 | 187 | 0.0 | 0.0 | 0.00 | 0.00 | 0.00 | 35 | 1010.7 |
| 20260510054240 | 75 | 205 | 0.0 | 0.0 | 0.00 | 0.00 | 0.00 | 35 | 1010.8 |
| 20260510053740 | 75 | 245 | 0.0 | 0.0 | 0.00 | 0.00 | 0.00 | 34 | 1010.8 |
| 20260510053237 | 75 | 219 | 0.0 | 0.0 | 0.00 | 0.00 | 0.00 | 34 | 1010.7 |
| 20260510052732 | 75 | 190 | 0.0 | 0.0 | 0.00 | 0.00 | 0.00 | 34 | 1010.4 |
| 20260510052228 | 76 | 155 | 0.0 | 0.0 | 0.00 | 0.00 | 0.00 | 33 | 1010.7 |
| 20260510051724 | 76 | 199 | 0.0 | 0.0 | 0.00 | 0.00 | 0.00 | 33 | 1010.7 |
| 20260510051221 | 76 | 212 | 0.0 | 0.0 | 0.00 | 0.00 | 0.00 | 33 | 1010.7 |
| 20260510050718 | 76 | 187 | 0.0 | 0.0 | 0.00 | 0.00 | 0.00 | 33 | 1010.6 |
| 20260510050216 | 76 | 195 | 0.0 | 0.0 | 0.00 | 0.00 | 0.00 | 32 | 1010.6 |
| 20260510045712 | 76 | 215 | 0.0 | 0.0 | 0.00 | 0.00 | 0.00 | 32 | 1010.6 |
| 20260510045209 | 76 | 196 | 0.0 | 0.0 | 0.00 | 0.00 | 0.00 | 32 | 1010.6 |
| 20260510044705 | 75 | 191 | 0.0 | 0.0 | 0.00 | 0.00 | 0.00 | 33 | 1010.9 |
| 20260510044203 | 75 | 180 | 0.0 | 0.0 | 0.00 | 0.00 | 0.00 | 33 | 1010.8 |
| 20260510043658 | 75 | 181 | 0.0 | 0.0 | 0.00 | 0.00 | 0.00 | 33 | 1010.7 |
| 20260510043155 | 75 | 188 | 0.0 | 0.0 | 0.00 | 0.00 | 0.00 | 33 | 1010.9 |
| 20260510042652 | 75 | 203 | 0.0 | 0.0 | 0.00 | 0.00 | 0.00 | 32 | 1010.8 |
| 20260510042148 | 75 | 209 | 0.0 | 0.0 | 0.00 | 0.00 | 0.00 | 32 | 1011.0 |
| 20260510041646 | 75 | 186 | 0.0 | 0.0 | 0.00 | 0.00 | 0.00 | 32 | 1010.9 |
| 20260510041143 | 76 | 162 | 0.0 | 0.0 | 0.00 | 0.00 | 0.00 | 31 | 1010.8 |
| 20260510040640 | 75 | 200 | 0.0 | 0.0 | 0.00 | 0.00 | 0.00 | 31 | 1010.7 |
| 20260510040136 | 75 | 169 | 0.0 | 0.0 | 0.00 | 0.00 | 0.00 | 30 | 1010.6 |
| 20260510035632 | 75 | 204 | 0.0 | 0.0 | 0.00 | 0.00 | 0.00 | 30 | 1010.4 |
| 20260510035127 | 74 | 232 | 0.0 | 0.0 | 0.00 | 0.00 | 0.00 | 30 | 1010.6 |
| 20260510034624 | 75 | 180 | 0.0 | 0.0 | 0.00 | 0.00 | 0.00 | 29 | 1010.6 |
| 20260510034121 | 75 | 209 | 0.0 | 0.0 | 0.00 | 0.00 | 0.00 | 29 | 1010.7 |
| 20260510033618 | 75 | 152 | 0.0 | 0.0 | 0.00 | 0.00 | 0.00 | 28 | 1010.4 |
| 20260510033115 | 76 | 191 | 0.0 | 0.0 | 0.00 | 0.00 | 0.00 | 27 | 1010.4 |
| 20260510032612 | 77 | 195 | 0.0 | 0.0 | 0.00 | 0.00 | 0.00 | 27 | 1010.6 |
| 20260510032107 | 77 | 171 | 0.0 | 0.0 | 0.00 | 0.00 | 0.00 | 26 | 1010.4 |
| 20260510031602 | 78 | 183 | 0.0 | 0.0 | 0.00 | 0.00 | 0.00 | 26 | 1010.2 |
| 20260510031059 | 78 | 204 | 0.0 | 0.0 | 0.00 | 0.00 | 0.00 | 25 | 1010.3 |
| 20260510030554 | 78 | 155 | 0.0 | 0.0 | 0.00 | 0.00 | 0.00 | 24 | 1010.2 |
| 20260510030052 | 78 | 205 | 0.0 | 0.0 | 0.00 | 0.00 | 0.00 | 24 | 1010.3 |
| 20260510025548 | 78 | 237 | 0.0 | 0.0 | 0.00 | 0.00 | 0.00 | 24 | 1010.2 |
| 20260510025046 | 78 | 201 | 0.0 | 0.0 | 0.00 | 0.00 | 0.00 | 24 | 1010.1 |
| 20260510024543 | 79 | 166 | 0.0 | 0.0 | 0.00 | 0.00 | 0.00 | 23 | 1010.0 |
| 20260510024039 | 78 | 195 | 0.0 | 0.0 | 0.00 | 0.00 | 0.00 | 23 | 1010.0 |
| 20260510023535 | 78 | 197 | 0.0 | 0.0 | 0.00 | 0.00 | 0.00 | 23 | 1009.9 |
| 20260510023033 | 78 | 180 | 0.0 | 0.0 | 0.00 | 0.00 | 0.00 | 23 | 1009.9 |
| 20260510022532 | 78 | 180 | 0.0 | 0.0 | 0.00 | 0.00 | 0.00 | 23 | 1009.9 |
| 20260510022026 | 79 | 201 | 0.0 | 0.0 | 0.00 | 0.00 | 0.00 | 23 | 1009.5 |
| 20260510021523 | 79 | 180 | 0.0 | 0.0 | 0.00 | 0.00 | 0.00 | 23 | 1009.8 |
| 20260510021020 | 79 | 200 | 0.0 | 0.0 | 0.00 | 0.00 | 0.00 | 22 | 1009.9 |
| 20260510020515 | 80 | 239 | 0.0 | 0.0 | 0.00 | 0.00 | 0.00 | 22 | 1009.7 |
| 20260510020011 | 81 | 205 | 0.0 | 0.0 | 0.00 | 0.00 | 0.00 | 21 | 1009.6 |
| 20260510015506 | 81 | 196 | 0.0 | 0.0 | 0.00 | 0.00 | 0.00 | 20 | 1009.2 |
| 20260510015002 | 81 | 180 | 0.0 | 0.0 | 0.00 | 0.00 | 0.00 | 20 | 1009.5 |
| 20260510014459 | 81 | 196 | 0.0 | 0.0 | 0.00 | 0.00 | 0.00 | 21 | 1009.2 |
| 20260510013956 | 82 | 170 | 0.0 | 0.0 | 0.00 | 0.00 | 0.00 | 20 | 1009.5 |
| 20260510013450 | 83 | 192 | 0.0 | 0.0 | 0.00 | 0.00 | 0.00 | 19 | 1009.1 |
| 20260510012947 | 84 | 169 | 0.0 | 0.0 | 0.00 | 0.00 | 0.00 | 18 | 1009.0 |
| 20260510012442 | 85 | 171 | 0.0 | 0.0 | 0.00 | 0.00 | 0.00 | 17 | 1008.9 |
| 20260510011936 | 86 | 166 | 0.0 | 0.0 | 0.00 | 0.00 | 0.00 | 17 | 1008.8 |
| 20260510011426 | 87 | 232 | 0.0 | 0.0 | 0.00 | 0.00 | 0.00 | 16 | 1008.8 |
| 20260510010922 | 88 | 171 | 0.0 | 0.0 | 0.00 | 0.00 | 0.00 | 16 | 1008.9 |
| 20260510010420 | 88 | 213 | 0.0 | 0.0 | 0.00 | 0.00 | 0.00 | 16 | 1008.8 |
| 20260510005916 | 89 | 210 | 0.0 | 0.0 | 0.00 | 0.00 | 0.00 | 15 | 1008.9 |
| 20260510005412 | 90 | 191 | 0.0 | 0.0 | 0.00 | 0.00 | 0.00 | 15 | 1008.9 |
| 20260510004910 | 90 | 224 | 0.0 | 0.0 | 0.00 | 0.00 | 0.00 | 14 | 1008.8 |
| 20260510004407 | 91 | 270 | 0.0 | 0.0 | 0.00 | 0.00 | 0.00 | 14 | 1008.8 |
| 20260510003905 | 91 | 224 | 0.0 | 0.0 | 0.00 | 0.00 | 0.00 | 14 | 1008.8 |
| 20260510003402 | 91 | 236 | 0.0 | 0.0 | 0.00 | 0.00 | 0.00 | 14 | 1008.5 |
| 20260510002901 | 91 | 210 | 0.0 | 0.0 | 0.00 | 0.00 | 0.00 | 13 | 1008.6 |
| 20260510002358 | 92 | 199 | 0.0 | 0.0 | 0.00 | 0.00 | 0.00 | 14 | 1008.8 |
| 20260510001854 | 92 | 204 | 0.0 | 0.0 | 0.00 | 0.00 | 0.00 | 13 | 1008.9 |
| 20260510001353 | 92 | 218 | 0.0 | 0.0 | 0.00 | 0.00 | 0.00 | 13 | 1008.9 |
| 20260510000849 | 93 | 172 | 0.0 | 0.0 | 0.00 | 0.00 | 0.00 | 13 | 1009.1 |
| 20260510000348 | 93 | 234 | 0.0 | 0.0 | 0.00 | 0.00 | 0.00 | 13 | 1009.0 |
| 20260509235842 | 92 | 197 | 0.0 | 0.0 | 0.00 | 0.00 | 0.00 | 13 | 1008.8 |
| 20260509235339 | 93 | 296 | 0.0 | 0.0 | 0.00 | 0.00 | 0.00 | 13 | 1009.0 |
| 20260509234835 | 93 | 273 | 0.0 | 0.0 | 0.00 | 0.00 | 0.00 | 13 | 1009.1 |
| 20260509234332 | 93 | 209 | 0.0 | 0.0 | 0.00 | 0.00 | 0.00 | 13 | 1009.3 |
| 20260509233830 | 93 | 230 | 0.0 | 0.0 | 0.00 | 0.00 | 0.00 | 13 | 1009.2 |
| 20260509233328 | 94 | 223 | 0.0 | 0.0 | 0.00 | 0.00 | 0.00 | 13 | 1009.0 |
| 20260509232823 | 93 | 283 | 0.0 | 0.0 | 0.00 | 0.00 | 0.00 | 13 | 1009.2 |
| 20260509232321 | 93 | 238 | 0.0 | 0.0 | 0.00 | 0.00 | 0.00 | 13 | 1009.0 |
| 20260509231817 | 93 | 238 | 0.0 | 0.0 | 0.00 | 0.00 | 0.00 | 13 | 1009.2 |
| 20260509231314 | 93 | 235 | 0.0 | 0.0 | 0.00 | 0.00 | 0.00 | 13 | 1009.2 |
| 20260509230812 | 0 | 0.0 | 0.0 | 0.00 | 0.00 | 0.00 | 1009.6 | ||
| 20260509230309 | 0 | 0.0 | 0.0 | 0.00 | 0.00 | 0.00 | 1009.5 | ||
| 20260509225803 | 0 | 0.0 | 0.0 | 0.00 | 0.00 | 0.00 | 1009.6 | ||
| 20260509225301 | 0 | 0.0 | 0.0 | 0.00 | 0.00 | 0.00 | 1009.5 | ||
| 20260509224756 | 0 | 0.0 | 0.0 | 0.00 | 0.00 | 0.00 | 1009.3 | ||
| 20260509224253 | 0 | 0.0 | 0.0 | 0.00 | 0.00 | 0.00 | 1009.5 | ||
| 20260509223750 | 0 | 0.0 | 0.0 | 0.00 | 0.00 | 0.00 | 1009.8 | ||
| 20260509223247 | 0 | 0.0 | 0.0 | 0.00 | 0.00 | 0.00 | 1009.5 | ||
| 20260509222743 | 0 | 0.0 | 0.0 | 0.00 | 0.00 | 0.00 | 1009.5 | ||
| 20260509222239 | 0 | 0.0 | 0.0 | 0.00 | 0.00 | 0.00 | 1009.3 | ||
| 20260509221734 | 0 | 0.0 | 0.0 | 0.00 | 0.00 | 0.00 | 1009.7 | ||
| 20260509221231 | 0 | 0.0 | 0.0 | 0.00 | 0.00 | 0.00 | 1009.9 | ||
| 20260509220727 | 0 | 0.0 | 0.0 | 0.00 | 0.00 | 0.00 | 1009.8 | ||
| 20260509220224 | 0 | 0.0 | 0.0 | 0.00 | 0.00 | 0.00 | 1009.9 | ||
| 20260509215719 | 0 | 0.0 | 0.0 | 0.00 | 0.00 | 0.00 | 1009.9 | ||
| 20260509215216 | 0 | 0.0 | 0.0 | 0.00 | 0.00 | 0.00 | 1010.2 | ||
| 20260509214713 | 0 | 0.0 | 0.0 | 0.00 | 0.00 | 0.00 | 1009.9 | ||
| 20260509214210 | 0 | 0.0 | 0.0 | 0.00 | 0.00 | 0.00 | 1010.2 | ||
| 20260509213707 | 0 | 0.0 | 0.0 | 0.00 | 0.00 | 0.00 | 1010.2 | ||
| 20260509213202 | 0 | 0.0 | 0.0 | 0.00 | 0.00 | 0.00 | 1010.1 | ||
| 20260509212701 | 0 | 0.0 | 0.0 | 0.00 | 0.00 | 0.00 | 1010.2 | ||
| 20260509212157 | 0 | 0.0 | 0.0 | 0.00 | 0.00 | 0.00 | 1010.6 | ||
| 20260509211653 | 0 | 0.0 | 0.0 | 0.00 | 0.00 | 0.00 | 1010.7 | ||
| 20260509211150 | 0 | 0.0 | 0.0 | 0.00 | 0.00 | 0.00 | 1010.4 | ||
| 20260509210646 | 0 | 0.0 | 0.0 | 0.00 | 0.00 | 0.00 | 1010.6 | ||
| 20260509210138 | 0 | 0.0 | 0.0 | 0.00 | 0.00 | 0.00 | 1010.7 | ||
| 20260509205633 | 0 | 0.0 | 0.0 | 0.00 | 0.00 | 0.00 | 1011.0 | ||
| 20260509205127 | 0 | 0.0 | 0.0 | 0.00 | 0.00 | 0.00 | 1010.9 | ||
| 20260509204623 | 0 | 0.0 | 0.0 | 0.00 | 0.00 | 0.00 | 1011.1 | ||
| 20260509204120 | 0 | 0.0 | 0.0 | 0.00 | 0.00 | 0.00 | 1010.7 | ||
| 20260509203616 | 0 | 0.0 | 0.0 | 0.00 | 0.00 | 0.00 | 1011.0 | ||
| 20260509203115 | 0 | 0.0 | 0.0 | 0.00 | 0.00 | 0.00 | 1011.2 | ||
| 20260509202609 | 0 | 0.0 | 0.0 | 0.00 | 0.00 | 0.00 | 1011.1 | ||
| 20260509202104 | 0 | 0.0 | 0.0 | 0.00 | 0.00 | 0.00 | 1011.3 | ||
| 20260509201559 | 0 | 0.0 | 0.0 | 0.00 | 0.00 | 0.00 | 1011.4 | ||
| 20260509201057 | 0 | 0.0 | 0.0 | 0.00 | 0.00 | 0.00 | 1011.4 | ||
| 20260509200556 | 0 | 0.0 | 0.0 | 0.00 | 0.00 | 0.00 | 1011.7 | ||
| 20260509200053 | 0 | 0.0 | 0.0 | 0.00 | 0.00 | 0.00 | 1011.4 | ||
| 20260509195549 | 0 | 0.0 | 0.0 | 0.00 | 0.00 | 0.00 | 1011.8 | ||
| 20260509195044 | 0 | 0.0 | 0.0 | 0.00 | 0.00 | 0.00 | 1011.9 | ||
| 20260509194538 | 0 | 0.0 | 0.0 | 0.00 | 0.00 | 0.00 | 1011.8 | ||
| 20260509194036 | 0 | 0.0 | 0.0 | 0.00 | 0.00 | 0.00 | 1011.8 | ||
| 20260509193537 | 0 | 0.0 | 0.0 | 0.00 | 0.00 | 0.00 | 1011.9 | ||
| 20260509193033 | 0 | 0.0 | 0.0 | 0.00 | 0.00 | 0.00 | 1012.0 | ||
| 20260509192530 | 0 | 0.0 | 0.0 | 0.00 | 0.00 | 0.00 | 1011.7 | ||
| 20260509192025 | 0 | 0.0 | 0.0 | 0.00 | 0.00 | 0.00 | 1012.1 | ||
| 20260509191520 | 0 | 0.0 | 0.0 | 0.00 | 0.00 | 0.00 | 1011.9 | ||
| 20260509191016 | 0 | 0.0 | 0.0 | 0.00 | 0.00 | 0.00 | 1012.1 | ||
| 20260509190513 | 0 | 0.0 | 0.0 | 0.00 | 0.00 | 0.00 | 1012.3 | ||
| 20260509190011 | 0 | 0.0 | 0.0 | 0.00 | 0.00 | 0.00 | 1012.0 | ||
| 20260509185508 | 0 | 0.0 | 0.0 | 0.00 | 0.00 | 0.00 | 1012.3 | ||
| 20260509185004 | 0 | 0.0 | 0.0 | 0.00 | 0.00 | 0.00 | 1012.3 | ||
| 20260509184503 | 0 | 0.0 | 0.0 | 0.00 | 0.00 | 0.00 | 1012.6 | ||
| 20260509183958 | 0 | 0.0 | 0.0 | 0.00 | 0.00 | 0.00 | 1012.1 | ||
| 20260509183453 | 0 | 0.0 | 0.0 | 0.00 | 0.00 | 0.00 | 1012.4 | ||
| 20260509182949 | 0 | 0.0 | 0.0 | 0.00 | 0.00 | 0.00 | 1012.8 | ||
| 20260509182446 | 0 | 0.0 | 0.0 | 0.00 | 0.00 | 0.00 | 1012.9 | ||
| 20260509181944 | 0 | 0.0 | 0.0 | 0.00 | 0.00 | 0.00 | 1012.9 | ||
| 20260509181441 | 0 | 0.0 | 0.0 | 0.00 | 0.00 | 0.00 | 1013.0 | ||
| 20260509180939 | 0 | 0.0 | 0.0 | 0.00 | 0.00 | 0.00 | 1013.0 | ||
| 20260509180434 | 0 | 0.0 | 0.0 | 0.00 | 0.00 | 0.00 | 1012.9 | ||
| 20260509175931 | 0 | 0.0 | 0.0 | 0.00 | 0.00 | 0.00 | 1013.3 | ||
| 20260509175427 | 0 | 0.0 | 0.0 | 0.00 | 0.00 | 0.00 | 1013.3 | ||
| 20260509174924 | 0 | 0.0 | 0.0 | 0.00 | 0.00 | 0.00 | 1013.1 | ||
| 20260509174420 | 0 | 0.0 | 0.0 | 0.00 | 0.00 | 0.00 | 1013.2 | ||
| 20260509173916 | 0 | 0.0 | 0.0 | 0.00 | 0.00 | 0.00 | 1013.1 | ||
| 20260509173415 | 0 | 0.0 | 0.0 | 0.00 | 0.00 | 0.00 | 1013.3 | ||
| 20260509172912 | 0 | 0.0 | 0.0 | 0.00 | 0.00 | 0.00 | 1013.4 | ||
| 20260509172409 | 0 | 0.0 | 0.0 | 0.00 | 0.00 | 0.00 | 1013.4 | ||
| 20260509171905 | 0 | 0.0 | 0.0 | 0.00 | 0.00 | 0.00 | 1013.2 | ||
| 20260509171401 | 0 | 0.0 | 0.0 | 0.00 | 0.00 | 0.00 | 1013.5 | ||
| 20260509170857 | 0 | 0.0 | 0.0 | 0.00 | 0.00 | 0.00 | 1013.7 | ||
| 20260509170353 | 0 | 0.0 | 0.0 | 0.00 | 0.00 | 0.00 | 1013.7 | ||
| 20260509165848 | 86 | 220 | 0.0 | 0.0 | 0.00 | 0.00 | 0.00 | 23 | 1013.7 |
| 20260509165343 | 86 | 220 | 0.0 | 0.0 | 0.00 | 0.00 | 0.00 | 23 | 1013.7 |
| 20260509164839 | 0 | 0.0 | 0.0 | 0.00 | 0.00 | 0.00 | 1014.0 | ||
| 20260509164335 | 0 | 0.0 | 0.0 | 0.00 | 0.00 | 0.00 | 1013.9 | ||
| 20260509163832 | 0 | 0.0 | 0.0 | 0.00 | 0.00 | 0.00 | 1013.6 | ||
| 20260509163328 | 0 | 0.0 | 0.0 | 0.00 | 0.00 | 0.00 | 1013.7 | ||
| 20260509162827 | 0 | 0.0 | 0.0 | 0.00 | 0.00 | 0.00 | 1013.9 | ||
| 20260509162320 | 0 | 0.0 | 0.0 | 0.00 | 0.00 | 0.00 | 1013.9 | ||
| 20260509161817 | 84 | 263 | 0.0 | 0.0 | 0.00 | 0.00 | 0.00 | 24 | 1013.7 |
| 20260509161313 | 84 | 263 | 0.0 | 0.0 | 0.00 | 0.00 | 0.00 | 24 | 1013.7 |
| 20260509160809 | 84 | 219 | 0.0 | 0.0 | 0.00 | 0.00 | 0.00 | 27 | 1013.7 |
| 20260509160305 | 84 | 229 | 0.0 | 0.0 | 0.00 | 0.00 | 0.00 | 26 | 1014.0 |
| 20260509155800 | 84 | 231 | 0.0 | 0.0 | 0.00 | 0.00 | 0.00 | 29 | 1013.7 |
| 20260509155257 | 83 | 226 | 0.0 | 0.0 | 0.00 | 0.00 | 0.00 | 31 | 1013.7 |
| 20260509154753 | 82 | 180 | 0.0 | 0.0 | 0.00 | 0.00 | 0.00 | 31 | 1013.9 |
| 20260509154250 | 82 | 225 | 0.0 | 0.0 | 0.00 | 0.00 | 0.00 | 30 | 1014.1 |
| 20260509153747 | 82 | 222 | 0.0 | 0.0 | 0.00 | 0.00 | 0.00 | 32 | 1014.1 |
| 20260509153243 | 81 | 246 | 0.0 | 0.0 | 0.00 | 0.00 | 0.00 | 36 | 1013.7 |
| 20260509152740 | 81 | 232 | 0.0 | 0.0 | 0.00 | 0.00 | 0.00 | 38 | 1014.2 |
| 20260509152236 | 80 | 238 | 0.0 | 0.0 | 0.00 | 0.00 | 0.00 | 38 | 1014.0 |
| 20260509151733 | 80 | 215 | 0.0 | 0.0 | 0.00 | 0.00 | 0.00 | 39 | 1014.1 |
| 20260509151230 | 79 | 221 | 0.0 | 0.0 | 0.00 | 0.00 | 0.00 | 40 | 1014.0 |
| 20260509150728 | 79 | 195 | 0.0 | 0.0 | 0.00 | 0.00 | 0.00 | 40 | 1014.0 |
| 20260509150226 | 78 | 229 | 0.0 | 0.0 | 0.00 | 0.00 | 0.00 | 41 | 1014.0 |
| 20260509145723 | 78 | 256 | 0.0 | 0.0 | 0.00 | 0.00 | 0.00 | 42 | 1013.7 |
| 20260509145217 | 77 | 216 | 0.0 | 0.0 | 0.00 | 0.00 | 0.00 | 43 | 1014.0 |
| 20260509144714 | 76 | 238 | 0.0 | 0.0 | 0.00 | 0.00 | 0.00 | 44 | 1013.7 |
| 20260509144211 | 76 | 239 | 0.0 | 0.0 | 0.00 | 0.00 | 0.00 | 45 | 1013.9 |
| 20260509143708 | 75 | 232 | 0.0 | 0.0 | 0.00 | 0.00 | 0.00 | 47 | 1014.0 |
| 20260509143206 | 75 | 273 | 0.0 | 0.0 | 0.00 | 0.00 | 0.00 | 48 | 1014.0 |
| 20260509142701 | 74 | 221 | 0.0 | 0.0 | 0.00 | 0.00 | 0.00 | 48 | 1014.1 |
| 20260509142158 | 73 | 210 | 0.0 | 0.0 | 0.00 | 0.00 | 0.00 | 49 | 1014.2 |
| 20260509141653 | 73 | 222 | 0.0 | 0.0 | 0.00 | 0.00 | 0.00 | 49 | 1014.1 |
| 20260509141150 | 73 | 199 | 0.0 | 0.0 | 0.00 | 0.00 | 0.00 | 50 | 1014.0 |
| 20260509140647 | 71 | 214 | 0.0 | 0.0 | 0.00 | 0.00 | 0.00 | 53 | 1014.2 |
| 20260509140145 | 71 | 219 | 0.0 | 0.0 | 0.00 | 0.00 | 0.00 | 53 | 1014.1 |
| 20260509135642 | 70 | 235 | 0.0 | 0.0 | 0.00 | 0.00 | 0.00 | 55 | 1014.4 |
| 20260509135140 | 70 | 210 | 0.0 | 0.0 | 0.00 | 0.00 | 0.00 | 55 | 1014.3 |
| 20260509134636 | 69 | 250 | 0.0 | 0.0 | 0.00 | 0.00 | 0.00 | 56 | 1014.2 |
| 20260509134134 | 69 | 214 | 0.0 | 0.0 | 0.00 | 0.00 | 0.00 | 57 | 1014.3 |
| 20260509133631 | 69 | 283 | 0.0 | 0.0 | 0.00 | 0.00 | 0.00 | 57 | 1014.3 |
| 20260509133128 | 68 | 255 | 0.0 | 0.0 | 0.00 | 0.00 | 0.00 | 59 | 1014.4 |
| 20260509132626 | 67 | 224 | 0.0 | 0.0 | 0.00 | 0.00 | 0.00 | 61 | 1014.2 |
| 20260509132125 | 67 | 236 | 0.0 | 0.0 | 0.00 | 0.00 | 0.00 | 65 | 1014.2 |
| 20260509131620 | 66 | 172 | 0.0 | 0.0 | 0.00 | 0.00 | 0.00 | 66 | 1014.0 |
| 20260509131118 | 65 | 203 | 0.0 | 0.0 | 0.00 | 0.00 | 0.00 | 67 | 1014.3 |
| 20260509130613 | 64 | 217 | 0.0 | 0.0 | 0.00 | 0.00 | 0.00 | 70 | 1014.0 |
| 20260509130110 | 63 | 205 | 0.0 | 0.0 | 0.00 | 0.00 | 0.00 | 73 | 1013.9 |
| 20260509125606 | 62 | 181 | 0.0 | 0.0 | 0.00 | 0.00 | 0.00 | 76 | 1013.7 |
| 20260509125103 | 61 | 164 | 0.0 | 0.0 | 0.00 | 0.00 | 0.00 | 79 | 1013.6 |
| 20260509124600 | 61 | 146 | 0.0 | 0.0 | 0.00 | 0.00 | 0.00 | 80 | 1013.6 |
| 20260509124057 | 60 | 146 | 0.0 | 0.0 | 0.00 | 0.00 | 0.00 | 81 | 1013.6 |
| 20260509123554 | 59 | 189 | 0.0 | 0.0 | 0.00 | 0.00 | 0.00 | 81 | 1013.4 |
| 20260509123051 | 59 | 189 | 0.0 | 0.0 | 0.00 | 0.00 | 0.00 | 81 | 1013.7 |
| 20260509122547 | 58 | 160 | 0.0 | 0.0 | 0.00 | 0.00 | 0.00 | 82 | 1013.5 |
| 20260509122045 | 58 | 149 | 0.0 | 0.0 | 0.00 | 0.00 | 0.00 | 82 | 1013.7 |
| 20260509121541 | 58 | 151 | 0.0 | 0.0 | 0.00 | 0.00 | 0.00 | 82 | 1013.4 |
| 20260509121039 | 58 | 175 | 0.0 | 0.0 | 0.00 | 0.00 | 0.00 | 82 | 1013.3 |
| 20260509120537 | 57 | 211 | 0.0 | 0.0 | 0.00 | 0.00 | 0.00 | 82 | 1013.2 |
| 20260509120035 | 57 | 177 | 0.0 | 0.0 | 0.00 | 0.00 | 0.00 | 82 | 1013.1 |